Weather History for KROX - January, 2013

Change the Weather History Date:

Friday, January 18, 2013

  Actual Average Record
Temperature  
Mean Temperature 6 °F -  
Max Temperature 12 °F 13 °F 34 °F (1991)
Min Temperature 1 °F -9 °F -43 °F (1970)
Degree Days  
Heating Degree Days 58    
Moisture  
Dew Point 2 °F    
Average Humidity 78    
Maximum Humidity 85    
Minimum Humidity 72    
Precipitation  
Precipitation 0.00 in - - ()
Sea Level Pressure  
Sea Level Pressure 29.83 in    
Wind  
Wind Speed 9 mph (East)    
Max Wind Speed 14 mph    
Max Gust Speed -    
Visibility 6 miles    
Events Snow    
Averages and records for this station are not official NWS values.
T = Trace of Precipitation, MM = Missing Value Source: NWS Daily Summary

Daily Weather History Graph

Daily Weather History Graph

Search for Another Location

Airport or City:

Trip Planner

Search our weather history database for the weather conditions in past years. The results will help you decide how hot, cold, wet, or windy it might be!

Date:

Astronomy

Jan. 18, 2013 Rise Set
Actual Time 8:08 AM CST 4:58 PM CST
Civil Twilight 7:32 AM CST 5:34 PM CST
Nautical Twilight 6:53 AM CST 6:13 PM CST
Astronomical Twilight 6:16 AM CST 6:51 PM CST
Moon 11:04 AM CST (1/18) 12:30 AM CST (1/18)
Length of Visible Light 10h 01m
Length of Day
8h 50m
Waxing Crescent, 47% of the Moon is Illuminated
Jan 18
Waxing Crescent
Jan 18
First Quarter
Jan 26
Full
Feb 3
Last Quarter
Feb 10
New

Hourly Weather History & Observations

Time (CST) Temp. Windchill Dew Point Humidity Pressure Visibility Wind Dir Wind Speed Gust Speed Precip Events Conditions
12:14 AM 1.4 °F -11.3 °F -5.8 °F 72% 30.13 in 10.0 mi SE 6.9 mph - N/A   Overcast
12:34 AM 1.4 °F -11.3 °F -5.8 °F 72% 30.11 in 10.0 mi SE 6.9 mph - N/A   Overcast
12:54 AM 3.2 °F -10.3 °F -4.0 °F 72% 30.10 in 10.0 mi SE 8.1 mph - N/A   Overcast
1:14 AM 3.2 °F -10.3 °F -2.2 °F 78% 30.09 in 10.0 mi SE 8.1 mph - N/A   Overcast
1:35 AM 3.2 °F -11.3 °F -2.2 °F 78% 30.09 in 10.0 mi SE 9.2 mph - N/A   Scattered Clouds
1:54 AM 3.2 °F -10.3 °F -2.2 °F 78% 30.08 in 5.0 mi SSE 8.1 mph - N/A Snow Light Snow
2:14 AM 3.2 °F -9.1 °F -2.2 °F 78% 30.07 in 2.0 mi SE 6.9 mph - N/A Snow Light Snow
2:35 AM 3.2 °F -10.3 °F -2.2 °F 78% 30.06 in 1.5 mi SE 8.1 mph - N/A Snow Light Snow
2:54 AM 3.2 °F -9.1 °F -0.4 °F 85% 30.04 in 1.5 mi ESE 6.9 mph - N/A Snow Light Snow
3:14 AM 3.2 °F -11.3 °F -0.4 °F 85% - 1.5 mi ESE 9.2 mph - N/A Snow Light Snow
3:35 AM 5.0 °F -8.1 °F -0.4 °F 78% 30.00 in 1.2 mi ESE 8.1 mph - N/A Snow Light Snow
3:54 AM 5.0 °F -9.1 °F -0.4 °F 78% 29.98 in 1.8 mi East 9.2 mph - N/A Snow Light Snow
4:14 AM 5.0 °F -10.8 °F -0.4 °F 78% 29.95 in 2.5 mi East 11.5 mph - N/A Snow Light Snow
4:35 AM 5.0 °F -9.1 °F -0.4 °F 78% 29.95 in 10.0 mi East 9.2 mph - N/A   Overcast
4:54 AM 5.0 °F -10.0 °F -0.4 °F 78% 29.93 in 10.0 mi East 10.4 mph - N/A Snow Light Snow
5:14 AM 5.0 °F -10.0 °F -0.4 °F 78% 29.92 in 7.0 mi East 10.4 mph - N/A Snow Light Snow
5:35 AM 5.0 °F -10.0 °F -0.4 °F 78% 29.90 in 3.0 mi East 10.4 mph - N/A Snow Light Snow
5:54 AM 5.0 °F -10.0 °F -0.4 °F 78% 29.89 in 4.0 mi East 10.4 mph - N/A Snow Light Snow
6:14 AM 6.8 °F -7.8 °F -0.4 °F 72% 29.89 in 3.0 mi East 10.4 mph - N/A Snow Light Snow
6:35 AM 6.8 °F -8.6 °F -0.4 °F 72% 29.87 in 7.0 mi East 11.5 mph - N/A Snow Light Snow
6:54 AM 6.8 °F -8.6 °F -0.4 °F 72% 29.85 in 7.0 mi East 11.5 mph - N/A Snow Light Snow
7:14 AM 6.8 °F -7.8 °F -0.4 °F 72% 29.85 in 10.0 mi ESE 10.4 mph - N/A Snow Light Snow
7:35 AM 6.8 °F -6.9 °F -0.4 °F 72% 29.83 in 3.0 mi ESE 9.2 mph - N/A Snow Light Snow
7:54 AM 6.8 °F -4.8 °F 1.4 °F 79% 29.83 in 2.0 mi East 6.9 mph - N/A Snow Light Snow
8:14 AM 6.8 °F -5.9 °F 1.4 °F 79% 29.82 in 4.0 mi East 8.1 mph - N/A Snow Light Snow
8:34 AM 6.8 °F -5.9 °F 1.4 °F 79% 29.83 in 4.0 mi East 8.1 mph - N/A   Haze
8:55 AM 6.8 °F -4.8 °F 1.4 °F 79% 29.83 in 2.0 mi East 6.9 mph - N/A Snow Light Snow
9:14 AM 6.8 °F -7.8 °F 1.4 °F 79% 29.83 in 1.2 mi East 10.4 mph - N/A Snow Light Snow
9:34 AM 6.8 °F -7.8 °F 1.4 °F 79% 29.83 in 0.5 mi ENE 10.4 mph - N/A Snow Snow
9:55 AM 6.8 °F -9.3 °F 1.4 °F 79% 29.82 in 1.2 mi ENE 12.7 mph - N/A Snow Light Snow
10:14 AM 6.8 °F -10.0 °F 1.4 °F 79% 29.82 in 1.5 mi ENE 13.8 mph - N/A Snow Light Snow
10:34 AM 6.8 °F -10.0 °F 1.4 °F 79% 29.81 in 0.8 mi ENE 13.8 mph - N/A Snow Light Snow
10:55 AM 6.8 °F -9.3 °F 1.4 °F 79% 29.79 in 1.5 mi East 12.7 mph - N/A Snow Light Snow
11:14 AM 6.8 °F -7.8 °F 1.4 °F 79% 29.79 in 2.5 mi East 10.4 mph - N/A Snow Light Snow
11:34 AM 8.6 °F -5.5 °F 1.4 °F 73% 29.78 in 3.0 mi East 10.4 mph - N/A Snow Light Snow
11:55 AM 8.6 °F -3.7 °F 3.2 °F 79% 29.78 in 2.0 mi ENE 8.1 mph - N/A Snow Light Snow
12:14 PM 8.6 °F -2.6 °F 3.2 °F 79% 29.78 in 7.0 mi ENE 6.9 mph - N/A   Mostly Cloudy
12:34 PM 8.6 °F -4.7 °F 3.2 °F 79% 29.77 in 10.0 mi NE 9.2 mph - N/A   Overcast
12:55 PM 8.6 °F -5.5 °F 3.2 °F 79% 29.76 in 10.0 mi ENE 10.4 mph - N/A   Overcast
1:14 PM 8.6 °F -4.7 °F 3.2 °F 79% 29.76 in 10.0 mi ENE 9.2 mph - N/A   Mostly Cloudy
1:34 PM 8.6 °F -6.3 °F 3.2 °F 79% 29.74 in 10.0 mi ENE 11.5 mph - N/A   Scattered Clouds
1:55 PM 8.6 °F -6.3 °F 3.2 °F 79% 29.72 in 10.0 mi East 11.5 mph - N/A   Scattered Clouds
2:14 PM 10.4 °F -0.4 °F 3.2 °F 73% 29.74 in 10.0 mi ENE 6.9 mph - N/A   Scattered Clouds
2:34 PM 10.4 °F - 3.2 °F 73% 29.76 in 10.0 mi Calm Calm - N/A   Scattered Clouds
2:55 PM 10.4 °F -2.4 °F 3.2 °F 73% 29.74 in 10.0 mi NE 9.2 mph - N/A   Clear
3:14 PM 10.4 °F -1.5 °F 3.2 °F 73% 29.75 in 10.0 mi NE 8.1 mph - N/A   Scattered Clouds
3:34 PM 10.4 °F -2.4 °F 3.2 °F 73% 29.76 in 10.0 mi NNE 9.2 mph - N/A   Mostly Cloudy
3:55 PM 10.4 °F -2.4 °F 5.0 °F 79% 29.75 in 10.0 mi NE 9.2 mph - N/A   Overcast
4:14 PM 10.4 °F -3.3 °F 5.0 °F 79% 29.75 in 10.0 mi NE 10.4 mph - N/A   Mostly Cloudy
4:34 PM 10.4 °F -2.4 °F 5.0 °F 79% 29.75 in 10.0 mi ENE 9.2 mph - N/A   Scattered Clouds
4:55 PM 10.4 °F -4.1 °F 5.0 °F 79% 29.75 in 10.0 mi ENE 11.5 mph - N/A   Clear
5:14 PM 10.4 °F -3.3 °F 3.2 °F 73% 29.76 in 10.0 mi NE 10.4 mph - N/A   Mostly Cloudy
5:34 PM 10.4 °F -2.4 °F 3.2 °F 73% 29.76 in 10.0 mi ENE 9.2 mph - N/A   Overcast
5:54 PM 10.4 °F -2.4 °F 3.2 °F 73% 29.76 in 10.0 mi ENE 9.2 mph - N/A   Overcast
6:14 PM 10.4 °F -1.5 °F 5.0 °F 79% 29.76 in 10.0 mi ENE 8.1 mph - N/A   Overcast
6:34 PM 10.4 °F -2.4 °F 5.0 °F 79% 29.76 in 10.0 mi ENE 9.2 mph - N/A   Overcast
6:54 PM 10.4 °F -0.4 °F 5.0 °F 79% 29.78 in 3.0 mi ENE 6.9 mph - N/A Snow Light Snow
7:14 PM 10.4 °F 2.2 °F 6.8 °F 85% 29.77 in 3.0 mi East 4.6 mph - N/A Snow Light Snow
7:34 PM 10.4 °F -0.4 °F 6.8 °F 85% 29.77 in 3.0 mi ENE 6.9 mph - N/A Snow Light Snow
7:54 PM 10.4 °F -0.4 °F 6.8 °F 85% 29.77 in 4.0 mi East 6.9 mph - N/A Snow Light Snow
8:14 PM 10.4 °F -1.5 °F 6.8 °F 85% 29.75 in 5.0 mi East 8.1 mph - N/A Snow Light Snow
8:34 PM 10.4 °F -0.4 °F 5.0 °F 79% 29.74 in 7.0 mi East 6.9 mph - N/A Snow Light Snow
9:15 PM 10.4 °F -0.4 °F 6.8 °F 85% 29.74 in 10.0 mi ENE 6.9 mph - N/A   Overcast
9:34 PM 10.4 °F -0.4 °F 6.8 °F 85% 29.73 in 10.0 mi East 6.9 mph - N/A   Overcast
9:54 PM 10.4 °F 0.8 °F 6.8 °F 85% 29.72 in 10.0 mi East 5.8 mph - N/A   Overcast
10:15 PM 12.2 °F 6.1 °F 6.8 °F 79% 29.73 in 10.0 mi East 3.5 mph - N/A   Mostly Cloudy
10:34 PM 12.2 °F 2.9 °F 6.8 °F 79% 29.72 in 7.0 mi East 5.8 mph - N/A   Mostly Cloudy
10:54 PM 12.2 °F 4.3 °F 6.8 °F 79% 29.71 in 3.0 mi East 4.6 mph - N/A Snow Light Snow
11:15 PM 12.2 °F 2.9 °F 6.8 °F 79% 29.69 in 7.0 mi East 5.8 mph - N/A   Clear
11:34 PM 12.2 °F 4.3 °F 6.8 °F 79% 29.69 in 10.0 mi ESE 4.6 mph - N/A   Scattered Clouds
11:54 PM 12.2 °F 4.3 °F 6.8 °F 79% 29.68 in 10.0 mi ESE 4.6 mph - N/A   Mostly Cloudy